Abilene, TX

1:00 PM CST on March 01, 2017 (GMT -0600)
Abilene Regional

Weather History for KABI - December, 2011

Change the Weather History Date:

Friday, December 16, 2011

  Actual Average Record
Temperature  
Mean Temperature 43 °F 45 °F  
Max Temperature 52 °F 56 °F 83 °F (1908)
Min Temperature 33 °F 33 °F 9 °F (1989)
Degree Days  
Heating Degree Days 22 20  
Month to date heating degree days 344 299  
Since 1 July heating degree days 731 732  
Cooling Degree Days 0 0  
Month to date cooling degree days 0 0  
Year to date cooling degree days 3517 2408  
Moisture  
Dew Point 30 °F    
Average Humidity 67    
Maximum Humidity 96    
Minimum Humidity 38    
Precipitation  
Precipitation 0.00 in 0.04 in 0.98 in (2001)
Month to date precipitation 1.40 0.64  
Year to date precipitation 16.30 24.23  
Sea Level Pressure  
Sea Level Pressure 30.39 in    
Wind  
Wind Speed 7 mph (North)    
Max Wind Speed 15 mph    
Max Gust Speed 18 mph    
Visibility 10 miles    
Events      
T = Trace of Precipitation, MM = Missing Value Source: NWS Daily Summary

Daily Weather History Graph

Daily Weather History Graph

Search for Another Location

Airport or City:

Trip Planner

Search our weather history database for the weather conditions in past years. The results will help you decide how hot, cold, wet, or windy it might be!

Date:

Astronomy

Dec. 16, 2011 Rise Set
Actual Time 7:33 AM CST 5:35 PM CST
Civil Twilight 7:06 AM CST 6:02 PM CST
Nautical Twilight 6:35 AM CST 6:33 PM CST
Astronomical Twilight 6:05 AM CST 7:03 PM CST
Moon 11:50 PM CST (12/16) 11:37 AM CST (12/16)
Length of Visible Light 10h 56m
Length of Day
10h 02m
Waning Gibbous, 64% of the Moon is Illuminated
Dec 16
Waning Gibbous
Dec 17
Last Quarter
Dec 24
New
Jan 1
First Quarter
Jan 9
Full

Hourly Weather History & Observations

Time (CST) Temp. Windchill Dew Point Humidity Pressure Visibility Wind Dir Wind Speed Gust Speed Precip Events Conditions
12:52 AM 39.9 °F 35.1 °F 35.1 °F 83% 30.31 in 10.0 mi North 6.9 mph - N/A   Scattered Clouds
1:52 AM 39.0 °F 34.0 °F 36.0 °F 89% 30.31 in 10.0 mi North 6.9 mph - N/A   Partly Cloudy
2:52 AM 37.9 °F 32.7 °F 35.1 °F 89% 30.32 in 10.0 mi North 6.9 mph - N/A   Clear
3:52 AM 36.0 °F 29.6 °F 32.0 °F 86% 30.33 in 10.0 mi North 8.1 mph - N/A   Clear
4:52 AM 35.1 °F 32.2 °F 32.0 °F 89% 30.34 in 10.0 mi NW 3.5 mph - N/A   Clear
5:52 AM 34.0 °F 28.0 °F 32.0 °F 92% 30.35 in 10.0 mi North 6.9 mph - N/A   Clear
6:52 AM 33.1 °F 26.9 °F 32.0 °F 96% 30.37 in 10.0 mi North 6.9 mph - N/A   Clear
7:52 AM 33.1 °F 28.7 °F 30.9 °F 92% 30.40 in 10.0 mi North 4.6 mph - N/A   Clear
8:52 AM 36.0 °F 29.0 °F 32.0 °F 86% 30.41 in 10.0 mi North 9.2 mph - N/A   Clear
9:52 AM 39.0 °F 34.0 °F 30.0 °F 70% 30.43 in 10.0 mi NNE 6.9 mph - N/A   Clear
10:52 AM 44.1 °F 38.6 °F 28.9 °F 55% 30.42 in 10.0 mi North 10.4 mph - N/A   Clear
11:52 AM 46.9 °F - 23.0 °F 39% 30.40 in 10.0 mi NNE 8.1 mph 16.1 mph N/A   Clear
12:52 PM 48.9 °F - 26.1 °F 41% 30.37 in 10.0 mi North 12.7 mph - N/A   Clear
1:52 PM 50.0 °F - 26.1 °F 39% 30.37 in 10.0 mi North 10.4 mph - N/A   Clear
2:52 PM 51.1 °F - 26.1 °F 38% 30.36 in 10.0 mi North 9.2 mph - N/A   Clear
3:52 PM 51.1 °F - 27.0 °F 39% 30.37 in 10.0 mi North 10.4 mph - N/A   Clear
4:52 PM 48.9 °F - 30.0 °F 48% 30.38 in 10.0 mi NNW 12.7 mph - N/A   Clear
5:52 PM 45.0 °F 40.6 °F 30.0 °F 56% 30.40 in 10.0 mi North 8.1 mph - N/A   Clear
6:52 PM 44.1 °F 42.5 °F 30.0 °F 58% 30.44 in 10.0 mi NNE 3.5 mph - N/A   Clear
7:52 PM 42.1 °F 40.2 °F 30.9 °F 65% 30.46 in 10.0 mi NNE 3.5 mph - N/A   Clear
8:52 PM 37.9 °F - 30.9 °F 76% 30.47 in 10.0 mi Calm Calm - N/A   Clear
9:52 PM 37.9 °F - 30.9 °F 76% 30.46 in 10.0 mi Calm Calm - N/A   Clear
10:52 PM 35.1 °F - 30.9 °F 85% 30.46 in 10.0 mi Calm Calm - N/A   Clear
11:52 PM 34.0 °F 31.0 °F 30.9 °F 89% 30.47 in 10.0 mi SSW 3.5 mph - N/A   Clear